Regional Weather Roundup
Issued by NWS Goodland, KS

Home | Current Version | Previous Version | Text Only | Print | Product List | Glossary On
Versions: 1 2 3 4 5 6 7 8 9 10 11 12 13 14 15 16 17 18 19 20 21 22 23 24 25 26 27 28 29 30 31 32 33 34 35 36 37 38 39 40 41 42 43 44 45 46 47 48 49 50
000
ASUS43 KGLD 011108
RWRGLD

GOODLAND FORECAST AREA HOURLY WEATHER ROUNDUP
NATIONAL WEATHER SERVICE GOODLAND KS
500 AM MDT TUE SEP 01 2015

...OFFICIAL OBSERVATIONS...

CITY           SKY/WX    TMP DP  RH WIND       PRES   REMARKS
GOODLAND KS    PTCLDY    62  59  90 SW9       30.01S
HILL CITY KS   CLOUDY    73  56  54 S3        29.94F
IMPERIAL NEB   PTCLDY    64  59  83 W5        29.97R
MCCOOK NEB     CLOUDY    68  64  87 SW9       29.92R
AKRON CO       CLEAR     58  55  90 W13       30.06R
BURLINGTON CO  CLEAR     60  56  86 W9        30.05F
LIMON CO       PTCLDY    51  50  96 NW6       30.13F
$$

...UNOFFICIAL OBSERVATIONS...

CITY           SKY/WX    TMP DP  RH WIND       PRES   REMARKS
COLBY KS       CLEAR     64  64 100 W5        29.98F
GOVE KS          N/A     70  32  24 MISG        N/A
LENORA KS        N/A     71  32  23 MISG        N/A
NORTON KS      LGT RAIN  70  54  56 S10       29.91F
SHARON SPRINGS   N/A     66  61  84 NW5G12      N/A
KIT CARSON CO    N/A     59  56  89 MISG        N/A
YUMA CO          N/A     58  56  92 CALM        N/A
$$


USA.gov is the U.S. government's official web portal to all federal, state and local government web resources and services.